Location: Newark
(51.3318°N, 0.0053°E)
Time: 21:29:47
(UTC+00:00)

DIWATA 2B (PO-101) - Pass Details

Date: 11 July 2022
Orbit: 583 x 599 km, 98.0° (Epoch: 16 August)

Event Time Altitude Azimuth Distance (km) Brightness Sun altitude
Exits shadow 01:27:15 13° 152° (SSE) 1,765 ? -14.4°
Maximum altitude 01:30:59 65° 72° (ENE) 666 ? -14.2°
Drops below altitude 10° 01:35:10 10° 351° (N) 1,949 ? -13.9°
Sets 01:37:22 0° 349° (NNW) 2,854 ? -13.8°
